Weather History for Heber, UT

Change the Weather History Date:

Saturday, August 9, 2014

  Actual Average (KPVU) Record (KPVU)
Temperature  
Mean Temperature 66 °F -  
Max Temperature 80 °F 88 °F 99 °F (1990)
Min Temperature 51 °F 58 °F 46 °F (2002)
Growing Degree Days 16 (Base 50)    
Moisture  
Dew Point 47 °F    
Average Humidity 59    
Maximum Humidity 88    
Minimum Humidity 24    
Precipitation  
Precipitation 0.00 in - - ()
Sea Level Pressure  
Sea Level Pressure 30.24 in    
Wind  
Wind Speed 5 mph (ESE)    
Max Wind Speed 20 mph    
Max Gust Speed 25 mph    
Visibility 10 miles    
Events Thunderstorm    
Averages and records for this station are not official NWS values.
T = Trace of Precipitation, MM = Missing Value Source: NWS Daily Summary

Daily Weather History Graph

Daily Weather History Graph

Search for Another Location

Airport:

Trip Planner

Search our weather history database for the weather conditions in past years. The results will help you decide how hot, cold, wet, or windy it might be!

Date:

Astronomy

Aug. 09, 2014 Rise Set
Actual Time 6:30 AM MDT 8:31 PM MDT
Civil Twilight 6:00 AM MDT 9:00 PM MDT
Nautical Twilight 5:24 AM MDT 9:37 PM MDT
Astronomical Twilight 4:44 AM MDT 10:16 PM MDT
Moon 7:35 PM MDT (8/9) 5:15 AM MDT (8/9)
Length of Visible Light 14h 59m
Length of Day
14h 00m
Waxing Gibbous, 98% of the Moon is Illuminated
Aug 9
Waxing Gibbous
Aug 10
Full
Aug 17
Last Quarter
Aug 25
New
Sep 2
First Quarter

Hourly Weather History & Observations

Time (MDT) Temp. Dew Point Humidity Pressure Visibility Wind Dir Wind Speed Gust Speed Precip Events Conditions
12:15 AM 64.4 °F 44.6 °F 49% 30.20 in 10.0 mi NNE 15.0 mph 21.9 mph N/A   Clear
12:35 AM 62.6 °F 44.6 °F 52% 30.22 in 10.0 mi NNE 10.4 mph 16.1 mph N/A   Scattered Clouds
12:55 AM 62.6 °F 44.6 °F 52% 30.23 in 10.0 mi NE 13.8 mph 21.9 mph N/A   Clear
1:15 AM 62.6 °F 42.8 °F 48% 30.23 in 10.0 mi ENE 9.2 mph 18.4 mph N/A   Clear
1:35 AM 60.8 °F 44.6 °F 55% 30.23 in 10.0 mi East 4.6 mph - N/A   Clear
1:55 AM 59.0 °F 44.6 °F 59% 30.22 in 10.0 mi ESE 4.6 mph - N/A   Clear
2:15 AM 57.2 °F 44.6 °F 63% 30.22 in 10.0 mi West 6.9 mph - N/A   Clear
2:35 AM 55.4 °F 46.4 °F 72% 30.22 in 10.0 mi Calm Calm - N/A   Clear
2:55 AM 53.6 °F 46.4 °F 77% 30.21 in 10.0 mi Calm Calm - N/A   Clear
3:15 AM 53.6 °F 46.4 °F 77% 30.21 in 10.0 mi East 4.6 mph - N/A   Clear
3:35 AM 53.6 °F 46.4 °F 77% 30.21 in 10.0 mi SE 4.6 mph - N/A   Clear
3:55 AM 53.6 °F 48.2 °F 82% 30.21 in 10.0 mi SE 3.5 mph - N/A   Clear
4:15 AM 53.6 °F 48.2 °F 82% 30.21 in 10.0 mi Calm Calm - N/A   Clear
4:35 AM 55.4 °F 48.2 °F 77% 30.21 in 10.0 mi Calm Calm - N/A   Clear
4:55 AM 53.6 °F 48.2 °F 82% 30.22 in 10.0 mi Calm Calm - N/A   Clear
5:15 AM 53.6 °F 46.4 °F 77% 30.22 in 10.0 mi Calm Calm - N/A   Clear
5:35 AM 53.6 °F 46.4 °F 77% 30.22 in 10.0 mi Calm Calm - N/A   Clear
5:55 AM 53.6 °F 48.2 °F 82% 30.23 in 10.0 mi Calm Calm - N/A   Clear
6:15 AM 51.8 °F 48.2 °F 88% 30.23 in 10.0 mi Calm Calm - N/A   Scattered Clouds
6:35 AM 51.8 °F 46.4 °F 82% 30.24 in 10.0 mi SE 4.6 mph - N/A   Scattered Clouds
6:55 AM 51.8 °F 46.4 °F 82% 30.24 in 10.0 mi ESE 3.5 mph - N/A   Clear
7:15 AM 51.8 °F 46.4 °F 82% 30.25 in 10.0 mi SE 3.5 mph - N/A   Clear
7:35 AM 51.8 °F 46.4 °F 82% 30.25 in 10.0 mi Calm Calm - N/A   Clear
7:55 AM 55.4 °F 46.4 °F 72% 30.26 in 10.0 mi Calm Calm - N/A   Clear
8:15 AM 55.4 °F 46.4 °F 72% 30.27 in 10.0 mi Calm Calm - N/A   Clear
8:35 AM 57.2 °F 48.2 °F 72% 30.27 in 10.0 mi Calm Calm - N/A   Clear
8:55 AM 59.0 °F 46.4 °F 63% 30.28 in 10.0 mi Calm Calm - N/A   Clear
9:15 AM 60.8 °F 46.4 °F 59% 30.28 in 10.0 mi Calm Calm - N/A   Clear
9:35 AM 62.6 °F 48.2 °F 59% 30.28 in 10.0 mi Calm Calm - N/A   Clear
9:55 AM 62.6 °F 48.2 °F 59% 30.28 in 10.0 mi Calm Calm - N/A   Clear
10:15 AM 64.4 °F 46.4 °F 52% 30.27 in 10.0 mi Calm Calm - N/A   Clear
10:35 AM 66.2 °F 46.4 °F 49% 30.27 in 10.0 mi Calm Calm - N/A   Clear
10:55 AM 68.0 °F 46.4 °F 46% 30.27 in 10.0 mi Calm Calm - N/A   Clear
11:15 AM 69.8 °F 46.4 °F 43% 30.27 in 10.0 mi Calm Calm - N/A   Clear
11:35 AM 71.6 °F 44.6 °F 38% 30.27 in 10.0 mi North 3.5 mph - N/A   Clear
11:55 AM 73.4 °F 42.8 °F 33% 30.26 in 10.0 mi Calm Calm - N/A   Clear
12:15 PM 75.2 °F 42.8 °F 31% 30.26 in 10.0 mi WNW 3.5 mph - N/A   Clear
12:35 PM 77.0 °F 44.6 °F 32% 30.25 in 10.0 mi Calm Calm - N/A   Clear
12:55 PM 78.8 °F 42.8 °F 28% 30.24 in 10.0 mi Calm Calm - N/A   Clear
1:15 PM 80.6 °F 41.0 °F 24% 30.24 in 10.0 mi Calm Calm - N/A Thunderstorm Clear
1:35 PM 80.6 °F 42.8 °F 26% 30.24 in 10.0 mi WNW 8.1 mph - N/A   Clear
1:55 PM 71.6 °F 50.0 °F 46% 30.24 in 10.0 mi West 11.5 mph - N/A   Mostly Cloudy
2:15 PM 73.4 °F 41.0 °F 31% 30.25 in 10.0 mi WNW 6.9 mph - N/A   Overcast
2:55 PM 68.0 °F 41.0 °F 37% 30.26 in 10.0 mi SSW 19.6 mph 25.3 mph N/A   Drizzle
3:15 PM 69.8 °F 42.8 °F 38% 30.26 in 10.0 mi West 9.2 mph - N/A   Overcast
3:35 PM 68.0 °F 46.4 °F 46% 30.26 in 10.0 mi SW 6.9 mph - N/A   Scattered Clouds
3:55 PM 69.8 °F 46.4 °F 43% 30.25 in 10.0 mi West 3.5 mph - N/A   Clear
4:15 PM 73.4 °F 46.4 °F 38% 30.23 in 10.0 mi SE 3.5 mph - N/A   Clear
4:35 PM 73.4 °F 46.4 °F 38% 30.23 in 10.0 mi Calm Calm - N/A   Clear
4:55 PM 75.2 °F 44.6 °F 34% 30.23 in 10.0 mi East 4.6 mph - N/A   Clear
5:15 PM 77.0 °F 44.6 °F 32% 30.23 in 10.0 mi East 4.6 mph - N/A   Clear
5:35 PM 77.0 °F 41.0 °F 28% 30.23 in 10.0 mi Calm Calm - N/A   Clear
5:55 PM 75.2 °F 51.8 °F 44% 30.23 in 10.0 mi NNW 5.8 mph - N/A   Clear
6:15 PM 75.2 °F 50.0 °F 41% 30.22 in 10.0 mi NW 3.5 mph - N/A   Clear
6:35 PM 71.6 °F 51.8 °F 50% 30.22 in 10.0 mi Calm Calm - N/A   Clear
6:55 PM 71.6 °F 50.0 °F 46% 30.22 in 10.0 mi Calm Calm - N/A   Clear
7:15 PM 68.0 °F 55.4 °F 64% 30.23 in 10.0 mi Calm Calm - N/A   Clear
7:55 PM 66.2 °F 53.6 °F 64% 30.23 in 10.0 mi SE 3.5 mph - N/A   Clear
8:15 PM 64.4 °F 53.6 °F 68% 30.24 in 10.0 mi Calm Calm - N/A   Clear
8:35 PM 60.8 °F 51.8 °F 72% 30.24 in 10.0 mi SSE 3.5 mph - N/A   Clear
8:55 PM 60.8 °F 51.8 °F 72% 30.24 in 10.0 mi Calm Calm - N/A   Clear
9:15 PM 60.8 °F 50.0 °F 68% 30.25 in 10.0 mi Calm Calm - N/A   Clear
10:15 PM 59.0 °F 50.0 °F 72% 30.26 in 10.0 mi Calm Calm - N/A   Clear
10:35 PM 55.4 °F 48.2 °F 77% 30.26 in 10.0 mi Calm Calm - N/A   Clear
10:55 PM 53.6 °F 48.2 °F 82% 30.26 in 10.0 mi Calm Calm - N/A   Clear
11:15 PM 53.6 °F 48.2 °F 82% 30.27 in 10.0 mi Calm Calm - N/A   Clear
11:35 PM 51.8 °F 46.4 °F 82% 30.27 in 10.0 mi Calm Calm - N/A   Clear
11:55 PM 53.6 °F 48.2 °F 82% 30.27 in 10.0 mi Calm Calm - N/A   Clear